CW4199 Weather Reports


Display with metric or nautical units.
time (UTC)temp
F
wind
direction
speed
MPH
gust
MPH
rain 1hr
in
rain 24hr
in
rain mn
in
humidity
%
barometer
mb
20260510152904 75 232 3.0 5.0 0.00 0.00 0.00 65 1016.9
20260510152404 75 275 3.0 7.0 0.00 0.00 0.00 66 1016.8
20260510151904 74 292 2.0 3.0 0.00 0.00 0.00 69 1016.7
20260510151404 74 12 1.0 3.0 0.00 0.00 0.00 70 1016.7
20260510150904 73 303 3.0 5.0 0.00 0.00 0.00 69 1016.7
20260510150404 73 292 3.0 5.0 0.00 0.00 0.00 69 1016.7
20260510145904 73 301 2.0 7.0 0.00 0.00 0.00 70 1016.7
20260510145404 73 283 3.0 7.0 0.00 0.00 0.00 72 1016.8
20260510144904 73 299 4.0 8.0 0.00 0.00 0.00 71 1016.9
20260510144404 73 305 6.0 9.0 0.00 0.00 0.00 72 1016.9
20260510143904 72 330 3.0 9.0 0.00 0.00 0.00 76 1016.8
20260510143404 71 306 5.0 8.0 0.00 0.00 0.00 75 1016.7
20260510142904 71 320 3.0 8.0 0.00 0.00 0.00 76 1016.7
20260510142404 70 325 5.0 8.0 0.00 0.00 0.00 77 1016.7
20260510141904 70 311 2.0 6.0 0.00 0.00 0.00 78 1016.7
20260510141404 70 293 4.0 7.0 0.00 0.00 0.00 79 1016.6
20260510140904 70 285 4.0 7.0 0.00 0.00 0.00 78 1016.6
20260510140405 69 293 5.0 9.0 0.00 0.00 0.00 79 1016.6
20260510134904 69 254 4.0 9.0 0.00 0.00 0.00 82 1016.6
20260510134404 69 300 5.0 10.0 0.00 0.00 0.00 81 1016.8
20260510133404 69 302 5.0 10.0 0.00 0.00 0.00 82 1016.9
20260510132904 69 321 5.0 10.0 0.00 0.00 0.00 82 1016.9
20260510131904 69 275 5.0 10.0 0.00 0.00 0.00 82 1016.7
20260510131404 69 291 5.0 10.0 0.00 0.00 0.00 82 1016.6
20260510130904 68 232 3.0 8.0 0.00 0.00 0.00 84 1016.5
20260510130404 68 278 3.0 7.0 0.00 0.00 0.00 84 1016.4
20260510125904 67 277 2.0 9.0 0.00 0.00 0.00 84 1016.4
20260510125403 67 305 2.0 7.0 0.00 0.00 0.00 85 1016.4
20260510124904 66 260 2.0 7.0 0.00 0.00 0.00 85 1016.4
20260510124404 66 312 3.0 5.0 0.00 0.00 0.00 86 1016.5
20260510123904 65 284 2.0 3.0 0.00 0.00 0.00 87 1016.4
20260510123404 65 295 2.0 3.0 0.00 0.00 0.00 88 1016.4
20260510121904 63 250 1.0 2.0 0.00 0.00 0.00 90 1016.2
20260510121404 62 250 0.0 2.0 0.00 0.00 0.00 91 1016.3
20260510120904 62 254 1.0 2.0 0.00 0.00 0.00 91 1016.1
20260510115904 61 259 1.0 3.0 0.00 0.00 0.00 92 1016.0
20260510115404 61 259 1.0 3.0 0.00 0.00 0.00 92 1015.9
20260510114904 61 242 1.0 3.0 0.00 0.00 0.00 92 1015.8
20260510114404 60 223 1.0 3.0 0.00 0.00 0.00 92 1015.5
20260510113404 58 221 1.0 3.0 0.00 0.00 0.00 93 1015.3
20260510112904 57 224 1.0 3.0 0.00 0.00 0.00 92 1015.3
20260510112404 56 224 1.0 3.0 0.00 0.00 0.00 93 1015.2
20260510111904 55 225 0.0 3.0 0.00 0.00 0.00 92 1015.0
20260510110904 55 225 0.0 1.0 0.00 0.00 0.00 91 1014.8
20260510110404 55 225 1.0 1.0 0.00 0.00 0.00 91 1014.7
20260510105904 55 225 1.0 1.0 0.00 0.00 0.00 91 1014.7
20260510105404 55 225 1.0 2.0 0.00 0.00 0.00 91 1014.6
20260510104904 55 225 1.0 2.0 0.00 0.00 0.00 91 1014.6
20260510104404 55 225 0.0 1.0 0.00 0.00 0.00 91 1014.7
20260510103904 55 225 0.0 1.0 0.00 0.00 0.00 91 1014.6
20260510103404 55 225 0.0 0.0 0.00 0.00 0.00 91 1014.5
20260510102904 55 225 0.0 1.0 0.00 0.00 0.00 90 1014.3
20260510102404 55 225 0.0 0.0 0.00 0.00 0.00 90 1014.2
20260510101904 56 225 0.0 0.0 0.00 0.00 0.00 90 1014.3
20260510100904 56 225 0.0 1.0 0.00 0.00 0.00 90 1014.2
20260510100404 56 225 0.0 1.0 0.00 0.00 0.00 90 1014.1
20260510095904 56 225 0.0 0.0 0.00 0.00 0.00 90 1014.1
20260510095404 56 225 0.0 0.0 0.00 0.00 0.00 90 1014.1
20260510094904 56 225 0.0 0.0 0.00 0.00 0.00 89 1014.0
20260510094404 57 225 0.0 0.0 0.00 0.00 0.00 89 1014.0
20260510093904 57 225 0.0 0.0 0.00 0.00 0.00 89 1013.8
20260510093404 57 225 0.0 2.0 0.00 0.00 0.00 88 1013.7
20260510092904 58 225 0.0 1.0 0.00 0.00 0.00 87 1013.8
20260510091404 61 225 1.0 3.0 0.00 0.00 0.00 88 1013.8
20260510090904 61 225 0.0 5.0 0.00 0.00 0.00 88 1013.9
20260510090404 61 228 2.0 6.0 0.00 0.00 0.00 87 1013.8
20260510085904 61 229 0.0 2.0 0.00 0.00 0.00 87 1013.7
20260510084904 61 226 3.0 7.0 0.00 0.00 0.00 87 1013.5
20260510084404 61 219 3.0 7.0 0.00 0.00 0.00 87 1013.5
20260510083904 61 214 3.0 8.0 0.00 0.00 0.00 86 1013.3
20260510083404 61 201 4.0 7.0 0.00 0.00 0.00 86 1013.3
20260510082904 61 192 4.0 6.0 0.00 0.00 0.00 86 1013.2
20260510082404 61 209 5.0 8.0 0.00 0.00 0.00 86 1013.2
20260510081904 61 211 3.0 6.0 0.00 0.00 0.00 85 1013.2
20260510081403 61 200 3.0 7.0 0.00 0.00 0.00 85 1013.3
20260510080904 61 207 3.0 7.0 0.00 0.00 0.00 85 1013.2
20260510080404 61 210 3.0 6.0 0.00 0.00 0.00 84 1013.2
20260510075904 60 200 3.0 5.0 0.00 0.00 0.00 84 1013.1
20260510075404 60 223 3.0 6.0 0.00 0.00 0.00 83 1013.3
20260510074404 60 205 3.0 6.0 0.00 0.00 0.00 83 1013.3
20260510073904 59 207 3.0 6.0 0.00 0.00 0.00 84 1013.3
20260510073404 58 212 3.0 5.0 0.00 0.00 0.00 85 1013.4
20260510072904 57 207 3.0 7.0 0.00 0.00 0.00 85 1013.4
20260510072404 55 182 1.0 3.0 0.00 0.00 0.00 84 1013.5
20260510071904 55 182 0.0 1.0 0.00 0.00 0.00 84 1013.6
20260510071404 55 182 1.0 3.0 0.00 0.00 0.00 85 1013.5
20260510065904 54 24 0.0 2.0 0.00 0.00 0.00 86 1013.4
20260510064904 53 18 0.0 1.0 0.00 0.00 0.00 86 1013.3
20260510064404 54 18 0.0 1.0 0.00 0.00 0.00 86 1013.3
20260510063904 54 18 0.0 1.0 0.00 0.00 0.00 85 1013.3
20260510063404 54 18 1.0 1.0 0.00 0.00 0.00 85 1013.3
20260510062904 54 18 0.0 1.0 0.00 0.00 0.00 85 1013.2
20260510062404 54 19 1.0 2.0 0.00 0.00 0.00 85 1013.2
20260510061404 54 18 0.0 1.0 0.00 0.00 0.00 84 1013.1
20260510060904 54 19 1.0 2.0 0.00 0.00 0.00 85 1013.1
20260510060404 54 18 0.0 0.0 0.00 0.00 0.00 85 1013.1
20260510055404 54 18 0.0 0.0 0.00 0.00 0.00 85 1013.1
20260510054904 54 18 0.0 0.0 0.00 0.00 0.00 85 1013.1
20260510054404 54 18 0.0 0.0 0.00 0.00 0.00 85 1013.1
20260510053904 54 18 0.0 0.0 0.00 0.00 0.00 85 1013.0
20260510053404 54 18 0.0 0.0 0.00 0.00 0.00 85 1013.1
20260510052904 55 18 1.0 2.0 0.00 0.00 0.00 85 1013.0
20260510052405 55 18 1.0 2.0 0.00 0.00 0.00 85 1013.0
20260510051904 55 18 0.0 0.0 0.00 0.00 0.00 85 1013.1
20260510051403 55 18 0.0 0.0 0.00 0.00 0.00 85 1013.1
20260510050904 55 18 0.0 1.0 0.00 0.00 0.00 84 1013.1
20260510050403 55 18 0.0 0.0 0.00 0.00 0.00 84 1013.1
20260510045903 56 18 0.0 2.0 0.00 0.00 0.00 84 1013.1
20260510045404 56 9 0.0 2.0 0.00 0.00 0.00 83 1013.2
20260510044403 56 9 0.0 0.0 0.00 0.00 0.00 83 1013.1
20260510043904 56 9 0.0 0.0 0.00 0.00 0.00 82 1013.0
20260510043404 56 9 0.0 0.0 0.00 0.00 0.00 82 1013.0
20260510042904 56 9 0.0 0.0 0.00 0.00 0.00 82 1012.9
20260510042404 57 9 0.0 0.0 0.00 0.00 0.00 81 1013.0
20260510041903 57 9 0.0 0.0 0.00 0.00 0.00 81 1013.0
20260510040904 57 9 0.0 0.0 0.00 0.00 0.00 81 1013.0
20260510040404 57 9 0.0 0.0 0.00 0.00 0.00 80 1013.1
20260510035904 57 9 0.0 0.0 0.00 0.00 0.00 81 1013.1
20260510035404 57 9 0.0 0.0 0.00 0.00 0.00 80 1013.1
20260510034904 58 9 0.0 0.0 0.00 0.00 0.00 80 1013.0
20260510034404 58 9 0.0 0.0 0.00 0.00 0.00 80 1013.0
20260510033904 58 9 0.0 0.0 0.00 0.00 0.00 79 1013.0
20260510032403 59 9 0.0 0.0 0.00 0.00 0.00 79 1013.1
20260510031403 59 9 0.0 0.0 0.00 0.00 0.00 78 1013.1
20260510030904 60 9 0.0 0.0 0.00 0.00 0.00 77 1013.1
20260510030404 60 9 0.0 0.0 0.00 0.00 0.00 77 1013.1
20260510025904 60 9 0.0 0.0 0.00 0.00 0.00 77 1012.9
20260510025404 60 9 0.0 0.0 0.00 0.00 0.00 76 1012.9
20260510024904 60 9 0.0 0.0 0.00 0.00 0.00 76 1012.8
20260510024404 61 9 0.0 0.0 0.00 0.00 0.00 75 1012.8
20260510023404 61 9 0.0 0.0 0.00 0.00 0.00 74 1012.6
20260510022904 61 9 0.0 0.0 0.00 0.00 0.00 72 1012.6
20260510022404 62 9 0.0 0.0 0.00 0.00 0.00 72 1012.5
20260510021904 62 9 0.0 0.0 0.00 0.00 0.00 71 1012.4
20260510021404 62 9 0.0 0.0 0.00 0.00 0.00 70 1012.3
20260510020904 62 9 0.0 0.0 0.00 0.00 0.00 69 1012.2
20260510015904 63 9 0.0 0.0 0.00 0.00 0.00 68 1012.1
20260510014904 64 9 0.0 0.0 0.00 0.00 0.00 67 1012.0
20260510014404 64 9 0.0 0.0 0.00 0.00 0.00 67 1011.9
20260510013904 64 9 0.0 0.0 0.00 0.00 0.00 66 1011.8
20260510013404 65 9 0.0 0.0 0.00 0.00 0.00 66 1011.9
20260510012904 66 9 0.0 0.0 0.00 0.00 0.00 65 1011.9
20260510012404 66 9 0.0 0.0 0.00 0.00 0.00 64 1011.8
20260510011904 66 9 0.0 0.0 0.00 0.00 0.00 63 1011.7
20260510010903 67 9 0.0 1.0 0.00 0.00 0.00 60 1011.6
20260510010404 68 9 0.0 0.0 0.00 0.00 0.00 59 1011.6
20260510005404 69 9 0.0 1.0 0.00 0.00 0.00 59 1011.4
20260510004904 69 9 0.0 0.0 0.00 0.00 0.00 58 1011.5
20260510004404 70 9 0.0 0.0 0.00 0.00 0.00 57 1011.5
20260510003904 71 9 0.0 0.0 0.00 0.00 0.00 55 1011.3
20260510003403 72 9 0.0 0.0 0.00 0.00 0.00 54 1011.2
20260510002903 72 9 0.0 0.0 0.00 0.00 0.00 51 1011.3
20260510001904 73 9 0.0 1.0 0.00 0.00 0.00 49 1011.2
20260510001404 74 9 0.0 1.0 0.00 0.00 0.00 48 1011.2
20260510000904 75 9 0.0 1.0 0.00 0.00 0.00 44 1011.1
20260510000404 76 9 1.0 2.0 0.00 0.00 0.00 41 1011.0
20260509235904 76 350 1.0 2.0 0.00 0.00 0.00 38 1010.9
20260509235403 76 350 1.0 2.0 0.00 0.00 0.00 39 1010.9
20260509233904 77 350 1.0 2.0 0.00 0.00 0.00 38 1010.8
20260509233404 77 350 1.0 3.0 0.00 0.00 0.00 38 1010.8
20260509232904 77 346 3.0 3.0 0.00 0.00 0.00 39 1010.8
20260509232403 77 323 3.0 5.0 0.00 0.00 0.00 39 1010.9
20260509231904 77 359 3.0 5.0 0.00 0.00 0.00 38 1011.0
20260509231404 78 318 3.0 3.0 0.00 0.00 0.00 40 1010.9
20260509230904 78 314 2.0 3.0 0.00 0.00 0.00 40 1010.8
20260509230404 78 293 2.0 3.0 0.00 0.00 0.00 39 1010.7
20260509225903 78 341 3.0 5.0 0.00 0.00 0.00 39 1010.6
20260509225403 79 359 3.0 3.0 0.00 0.00 0.00 39 1010.8
20260509224903 79 348 3.0 3.0 0.00 0.00 0.00 40 1010.8
20260509224404 79 352 3.0 5.0 0.00 0.00 0.00 39 1010.7
20260509223904 79 305 3.0 7.0 0.00 0.00 0.00 39 1010.6
20260509223403 80 310 3.0 5.0 0.00 0.00 0.00 38 1010.6
20260509222904 80 298 2.0 5.0 0.00 0.00 0.00 39 1010.8
20260509222404 80 299 3.0 8.0 0.00 0.00 0.00 39 1010.8
20260509221904 80 6 1.0 3.0 0.00 0.00 0.00 40 1010.7
20260509221404 80 5 2.0 3.0 0.00 0.00 0.00 39 1010.6
20260509220904 80 321 3.0 8.0 0.00 0.00 0.00 39 1010.8
20260509220403 80 298 3.0 8.0 0.00 0.00 0.00 38 1010.8
20260509215903 80 337 3.0 7.0 0.00 0.00 0.00 41 1010.6
20260509215404 79 268 3.0 7.0 0.00 0.00 0.00 39 1010.7
20260509214904 80 295 2.0 8.0 0.00 0.00 0.00 40 1010.8
20260509214403 80 293 5.0 8.0 0.00 0.00 0.00 40 1010.8
20260509213904 80 292 2.0 5.0 0.00 0.00 0.00 41 1010.7
20260509213404 80 300 3.0 6.0 0.00 0.00 0.00 41 1010.8
20260509212904 80 305 3.0 5.0 0.00 0.00 0.00 41 1010.9
20260509212404 80 253 1.0 3.0 0.00 0.00 0.00 41 1010.8
20260509211904 80 285 3.0 6.0 0.00 0.00 0.00 42 1010.8
20260509211404 80 88 0.0 2.0 0.00 0.00 0.00 43 1010.8
20260509210403 80 87 3.0 6.0 0.00 0.00 0.00 43 1010.6
20260509205905 79 96 2.0 3.0 0.00 0.00 0.00 43 1010.8
20260509205404 79 101 2.0 3.0 0.00 0.00 0.00 43 1011.0
20260509204904 79 165 4.0 7.0 0.00 0.00 0.00 42 1010.9
20260509204404 79 192 3.0 6.0 0.00 0.00 0.00 43 1010.6
20260509203903 80 189 2.0 5.0 0.00 0.00 0.00 43 1010.7
20260509203404 79 91 2.0 6.0 0.00 0.00 0.00 42 1010.8
20260509202904 79 91 2.0 6.0 0.00 0.00 0.00 44 1010.8
20260509202403 79 103 3.0 8.0 0.00 0.00 0.00 44 1010.8
20260509201903 79 79 4.0 8.0 0.00 0.00 0.00 45 1010.8
20260509200905 79 312 5.0 8.0 0.00 0.00 0.00 45 1011.0
20260509200404 79 344 3.0 8.0 0.00 0.00 0.00 45 1010.9
20260509195905 79 287 3.0 8.0 0.00 0.00 0.00 43 1010.9
20260509194905 79 286 3.0 8.0 0.00 0.00 0.00 45 1010.9
20260509193904 78 63 2.0 3.0 0.00 0.00 0.00 46 1011.0
20260509193404 79 296 2.0 6.0 0.00 0.00 0.00 48 1011.1
20260509192904 78 355 2.0 8.0 0.00 0.00 0.00 47 1011.1
20260509192405 78 348 2.0 8.0 0.00 0.00 0.00 47 1011.1
20260509191404 78 115 5.0 7.0 0.00 0.00 0.00 47 1011.2
20260509190905 78 63 3.0 8.0 0.00 0.00 0.00 47 1011.2
20260509190405 78 2 5.0 9.0 0.00 0.00 0.00 45 1011.2
20260509185905 78 346 3.0 8.0 0.00 0.00 0.00 46 1011.2
20260509185405 77 356 2.0 3.0 0.00 0.00 0.00 52 1011.3
20260509184905 77 0 2.0 3.0 0.00 0.00 0.00 48 1011.4
20260509183904 77 296 5.0 9.0 0.00 0.00 0.00 48 1011.5
20260509183405 76 48 2.0 3.0 0.00 0.00 0.00 51 1011.5
20260509182905 77 322 5.0 9.0 0.00 0.00 0.00 49 1011.5
20260509182404 77 345 3.0 8.0 0.00 0.00 0.00 49 1011.5
20260509181905 76 218 3.0 9.0 0.00 0.00 0.00 51 1011.5
20260509181405 77 292 4.0 9.0 0.00 0.00 0.00 52 1011.5
20260509180905 77 271 4.0 7.0 0.00 0.00 0.00 54 1011.5
20260509180405 76 186 4.0 7.0 0.00 0.00 0.00 54 1011.5
20260509175905 76 203 3.0 8.0 0.00 0.00 0.00 57 1011.4
20260509175405 76 298 3.0 12.0 0.00 0.00 0.00 54 1011.4
20260509174905 76 207 3.0 8.0 0.00 0.00 0.00 56 1011.4
20260509173905 75 193 2.0 3.0 0.00 0.00 0.00 57 1011.3
20260509173405 75 324 1.0 3.0 0.00 0.00 0.00 55 1011.4
20260509172905 75 285 3.0 8.0 0.00 0.00 0.00 56 1011.5
20260509172405 76 313 5.0 9.0 0.00 0.00 0.00 56 1011.5
20260509171904 75 315 5.0 8.0 0.00 0.00 0.00 58 1011.5
20260509171404 75 306 4.0 9.0 0.00 0.00 0.00 58 1011.7
20260509170905 75 250 5.0 9.0 0.00 0.00 0.00 59 1011.5
20260509170405 74 297 0.0 5.0 0.00 0.00 0.00 58 1011.6
20260509165905 74 25 2.0 3.0 0.00 0.00 0.00 60 1011.6
20260509164905 75 291 3.0 7.0 0.00 0.00 0.00 62 1011.5
20260509163904 73 301 3.0 7.0 0.00 0.00 0.00 60 1011.5
20260509162905 72 354 2.0 7.0 0.00 0.00 0.00 61 1011.4
20260509162404 73 13 1.0 5.0 0.00 0.00 0.00 60 1011.3
20260509161406 72 352 2.0 5.0 0.00 0.00 0.00 64 1011.2
20260509160904 73 19 3.0 7.0 0.00 0.00 0.00 64 1011.2
20260509160404 72 286 2.0 8.0 0.00 0.00 0.00 63 1011.2
20260509155404 72 287 6.0 8.0 0.00 0.00 0.00 63 1011.1
20260509154405 71 334 3.0 8.0 0.00 0.00 0.00 64 1011.2
20260509153905 71 296 4.0 9.0 0.00 0.00 0.00 65 1011.2
20260509153405 71 342 5.0 9.0 0.00 0.00 0.00 66 1011.1